H1 CPF 2 NER 2024 3 10 9 070 01 glonass141 H2 1908801 9141 44850 2024 3 10 0 0 0 2024 3 13 23 45 0 900 1 1 0 0 0 1 H9 10 0 60379 0.00000 0 3841845.009 14919692.780 20360950.483 10 0 60379 900.00000 0 3052363.905 17188105.755 18628442.056 10 0 60379 1800.00000 0 2503709.988 19284987.710 16535044.576 10 0 60379 2700.00000 0 2177501.930 21148060.299 14121164.256 10 0 60379 3600.00000 0 2044253.514 22721669.934 11433448.359 10 0 60379 4500.00000 0 2064830.646 23959001.370 8523898.234 10 0 60379 5400.00000 0 2192322.866 24823943.865 5448875.105 10 0 60379 6300.00000 0 2374251.212 25292531.106 2268016.637 10 0 60379 7200.00000 0 2555019.727 25353893.393 -956915.495 10 0 60379 8100.00000 0 2678507.035 25010680.615 -4163234.998 10 0 60379 9000.00000 0 2690687.832 24278936.613 -7288553.844 10 0 60379 9900.00000 0 2542172.301 23187428.638 -10272004.207 10 0 60379 10800.00000 0 2190554.329 21776458.789 -13055434.728 10 0 60379 11700.00000 0 1602467.153 20096206.457 -15584556.613 10 0 60379 12600.00000 0 755257.168 18204671.012 -17810015.841 10 0 60379 13500.00000 0 -361797.252 16165301.198 -19688369.313 10 0 60379 14400.00000 0 -1746775.717 14044411.218 -21182944.679 10 0 60379 15300.00000 0 -3384946.650 11908492.700 -22264566.086 10 0 60379 16200.00000 0 -5249147.848 9821536.191 -22912130.892 10 0 60379 17100.00000 0 -7300702.151 7842475.273 -23113025.673 10 0 60379 18000.00000 0 -9490830.617 6022861.112 -22863373.144 10 0 60379 18900.00000 0 -11762504.327 4404865.142 -22168105.211 10 0 60379 19800.00000 0 -14052657.224 3019693.431 -21040860.996 10 0 60379 20700.00000 0 -16294666.992 1886478.521 -19503712.230 10 0 60379 21600.00000 0 -18420999.580 1011694.008 -17586721.974 10 0 60379 22500.00000 0 -20365906.145 389114.746 -15327345.993 10 0 60379 23400.00000 0 -22068058.980 322.245 -12769689.318 10 0 60379 24300.00000 0 -23473015.786 -184268.343 -9963633.426 10 0 60379 25200.00000 0 -24535409.126 -203905.419 -6963852.044 10 0 60379 26100.00000 0 -25220769.672 -105588.086 -3828735.811 10 0 60379 27000.00000 0 -25506907.682 58173.787 -619247.699 10 0 60379 27900.00000 0 -25384795.966 231830.115 2602267.679 10 0 60379 28800.00000 0 -24858918.800 359385.983 5773297.015 10 0 60379 29700.00000 0 -23947073.825 387011.301 8832369.587 10 0 60379 30600.00000 0 -22679636.873 265554.149 11720243.348 10 0 60379 31500.00000 0 -21098322.015 -47148.175 14381043.140 10 0 60379 32400.00000 0 -19254489.844 -584257.432 16763329.777 10 0 60379 33300.00000 0 -17207075.361 -1368306.076 18821080.423 10 0 60379 34200.00000 0 -15020222.083 -2410020.092 20514562.709 10 0 60379 35100.00000 0 -12760720.514 -3707641.951 21811087.258 10 0 60379 36000.00000 0 -10495356.583 -5246781.937 22685625.709 10 0 60379 36900.00000 0 -8288278.860 -7000804.375 23121283.734 10 0 60379 37800.00000 0 -6198492.174 -8931733.528 23109621.108 10 0 60379 38700.00000 0 -4277579.784 -10991642.744 22650813.418 10 0 60379 39600.00000 0 -2567746.888 -13124470.831 21753652.524 10 0 60379 40500.00000 0 -1100265.114 -15268192.121 20435385.493 10 0 60379 41400.00000 0 105618.594 -17357252.193 18721394.286 10 0 60379 42300.00000 0 1043264.058 -19325169.931 16644721.149 10 0 60379 43200.00000 0 1718686.977 -21107199.389 14245447.283 10 0 60379 44100.00000 0 2150072.926 -22642941.851 11569935.054 10 0 60379 45000.00000 0 2366776.149 -23878799.767 8669946.669 10 0 60379 45900.00000 0 2407844.551 -24770170.103 5601654.806 10 0 60379 46800.00000 0 2320132.278 -25283284.719 2424563.083 10 0 60379 47700.00000 0 2156078.941 -25396619.481 -799643.479 10 0 60379 48600.00000 0 1971249.066 -25101811.388 -4008296.067 10 0 60379 49500.00000 0 1821736.027 -24404043.359 -7138964.336 10 0 60379 50400.00000 0 1761541.084 -23321878.627 -10130678.940 10 0 60379 51300.00000 0 1840039.723 -21886549.949 -12925129.571 10 0 60379 52200.00000 0 2099644.260 -20140732.119 -15467814.022 10 0 60379 53100.00000 0 2573763.670 -18136848.387 -17709114.492 10 0 60379 54000.00000 0 3285149.142 -15934981.424 -19605278.866 10 0 60379 54900.00000 0 4244697.501 -13600476.486 -21119286.655 10 0 60379 55800.00000 0 5450765.098 -11201337.674 -22221581.651 10 0 60379 56700.00000 0 6889022.907 -8805527.027 -22890656.262 10 0 60379 57600.00000 0 8532860.383 -6478280.241 -23113475.646 10 0 60379 58500.00000 0 10344322.066 -4279552.039 -22885733.089 10 0 60379 59400.00000 0 12275538.116 -2261698.471 -22211931.689 10 0 60379 60300.00000 0 14270588.835 -467493.109 -21105290.960 10 0 60379 61200.00000 0 16267724.646 1071440.260 -19587480.569 10 0 60379 62100.00000 0 18201847.918 2335713.813 -17688187.014 10 0 60379 63000.00000 0 20007151.868 3318736.747 -15444522.360 10 0 60379 63900.00000 0 21619805.179 4026729.636 -12900287.478 10 0 60379 64800.00000 0 22980569.199 4478193.855 -10105105.030 10 0 60379 65700.00000 0 24037237.575 4702860.958 -7113440.177 10 0 60379 66600.00000 0 24746795.981 4740168.899 -3983529.092 10 0 60379 67500.00000 0 25077211.668 4637331.841 -776237.163 10 0 60379 68400.00000 0 25008778.534 4447087.232 2446130.038 10 0 60379 69300.00000 0 24534962.319 4225217.084 5621039.198 10 0 60379 70200.00000 0 23662711.825 4027949.389 8686941.176 10 0 60379 71100.00000 0 22412224.526 3909350.139 11584458.841 10 0 60379 72000.00000 0 20816177.686 3918816.169 14257528.102 10 0 60379 72900.00000 0 18918458.291 4098774.288 16654470.798 10 0 60379 73800.00000 0 16772445.508 4482682.963 18728979.805 10 0 60379 74700.00000 0 14438917.575 5093419.875 20440998.651 10 0 60379 75600.00000 0 11983669.951 5942122.334 21757480.260 10 0 60379 76500.00000 0 9474942.888 7027528.681 22653011.745 10 0 60379 77400.00000 0 6980763.938 8335848.143 23110294.649 10 0 60379 78300.00000 0 4566313.944 9841164.982 23120472.577 10 0 60379 79200.00000 0 2291423.785 11506360.978 22683300.660 10 0 60379 80100.00000 0 208303.741 13284519.203 21807153.868 10 0 60379 81000.00000 0 -1640402.174 15120752.366 20508873.771 10 0 60379 81900.00000 0 -3223157.675 16954381.597 18813455.879 10 0 60379 82800.00000 0 -4520608.491 18721376.921 16753582.407 10 0 60379 83700.00000 0 -5526145.390 20356959.521 14369007.891 10 0 60379 84600.00000 0 -6245932.645 21798258.692 11705807.794 10 0 60379 85500.00000 0 -6698400.542 22986913.406 8815502.873 10 0 60380 0.00000 0 -6913222.693 23871509.880 5754074.980 10 0 60380 900.00000 0 -6929820.604 24409753.089 2580890.378 10 0 60380 1800.00000 0 -6795457.636 24570278.975 -642445.219 10 0 60380 2700.00000 0 -6563002.811 24334031.311 -3853283.486 10 0 60380 3600.00000 0 -6288458.564 23695142.153 -6989154.822 10 0 60380 4500.00000 0 -6028357.634 22661277.304 -9988991.375 10 0 60380 5400.00000 0 -5837140.093 21253430.095 -12794326.800 10 0 60380 6300.00000 0 -5764622.952 19505170.292 -15350448.221 10 0 60380 7200.00000 0 -5853671.132 17461378.224 -17607476.574 10 0 60380 8100.00000 0 -6138170.310 15176516.258 -19521353.007 10 0 60380 9000.00000 0 -6641389.381 12712509.630 -21054710.883 10 0 60380 9900.00000 0 -7374803.670 10136325.400 -22177615.341 10 0 60380 10800.00000 0 -8337430.312 7517351.217 -22868155.209 10 0 60380 11700.00000 0 -9515705.236 4924684.074 -23112875.222 10 0 60380 12600.00000 0 -10883907.956 2424443.037 -22907039.828 10 0 60380 13500.00000 0 -12405116.839 77218.693 -22254723.440 10 0 60380 14400.00000 0 -14032654.833 -2064233.896 -21168725.591 10 0 60380 15300.00000 0 -15711964.624 -3956962.517 -19670313.015 10 0 60380 16200.00000 0 -17382833.838 -5569363.842 -17788794.292 10 0 60380 17100.00000 0 -18981876.077 -6882244.736 -15560936.028 10 0 60380 18000.00000 0 -20445162.674 -7889356.082 -13030232.819 10 0 60380 18900.00000 0 -21710893.791 -8597378.950 -10246046.177 10 0 60380 19800.00000 0 -22721996.013 -9025366.201 -7262630.184 10 0 60380 20700.00000 0 -23428536.878 -9203665.686 -4138063.949 10 0 60380 21600.00000 0 -23789854.870 -9172373.074 -933112.636 10 0 60380 22500.00000 0 -23776315.722 -8979382.018 2289959.891 10 0 60380 23400.00000 0 -23370621.930 -8678116.021 5468602.985 10 0 60380 24300.00000 0 -22568621.497 -8325039.400 8541191.750 10 0 60380 25200.00000 0 -21379583.085 -7977053.435 11448216.594 10 0 60380 26100.00000 0 -19825927.211 -7688888.051 14133427.037 10 0 60380 27000.00000 0 -17942425.715 -7510598.917 16544908.351 10 0 60380 27900.00000 0 -15774903.628 -7485274.855 18636071.309 10 0 60380 28800.00000 0 -13378497.857 -7647051.177 20366537.259 10 0 60380 29700.00000 0 -10815544.952 -8019511.491 21702903.010 10 0 60380 30600.00000 0 -8153184.944 -8614544.174 22619372.368 10 0 60380 31500.00000 0 -5460779.496 -9431700.868 23098243.593 10 0 60380 32400.00000 0 -2807249.711 -10458083.713 23130244.585 10 0 60380 33300.00000 0 -258441.955 -11668766.411 22714710.146 10 0 60380 34200.00000 0 2125371.221 -13027732.469 21859598.177 10 0 60380 35100.00000 0 4291753.486 -14489292.853 20581344.282 10 0 60380 36000.00000 0 6198038.400 -15999925.635 18904556.796 10 0 60380 36900.00000 0 7812855.404 -17500462.753 16861556.919 10 0 60380 37800.00000 0 9117185.576 -18928534.408 14491771.283 10 0 60380 38700.00000 0 10104903.598 -20221170.558 11840986.932 10 0 60380 39600.00000 0 10782783.240 -21317451.789 8960481.399 10 0 60380 40500.00000 0 11169965.805 -22161099.065 5906043.117 10 0 60380 41400.00000 0 11296913.234 -22702893.664 2736899.845 10 0 60380 42300.00000 0 11203889.255 -22902824.856 -485424.958 10 0 60380 43200.00000 0 10939032.099 -22731873.669 -3698306.020 10 0 60380 44100.00000 0 10556099.838 -22173355.801 -6839237.112 10 0 60380 45000.00000 0 10111983.784 -21223764.984 -9847054.551 10 0 60380 45900.00000 0 9664095.675 -19893078.988 -12663138.648 10 0 60380 46800.00000 0 9267740.226 -18204513.171 -15232568.514 10 0 60380 47700.00000 0 8973585.599 -16193730.021 -17505206.411 10 0 60380 48600.00000 0 8825340.478 -13907536.351 -19436689.179 10 0 60380 49500.00000 0 8857737.753 -11402121.785 -20989306.250 10 0 60380 50400.00000 0 9094911.809 -8740911.834 -22132746.017 10 0 60380 51300.00000 0 9549239.517 -5992125.352 -22844695.275 10 0 60380 52200.00000 0 10220695.175 -3226138.753 -23111279.471 10 0 60380 53100.00000 0 11096747.534 -512767.595 -22927334.911 10 0 60380 54000.00000 0 12152803.772 2081420.483 -22296507.602 10 0 60380 54900.00000 0 13353181.817 4495648.994 -21231176.951 10 0 60380 55800.00000 0 14652569.776 6677225.735 -19752206.227 10 0 60380 56700.00000 0 15997910.406 8583490.452 -17888525.190 10 0 60380 57600.00000 0 17330630.438 10183336.508 -15676553.714 10 0 60380 58500.00000 0 18589119.916 11458244.244 -13159478.506 10 0 60380 59400.00000 0 19711356.147 12402784.676 -10386397.949 10 0 60380 60300.00000 0 20637560.957 13024574.691 -7411352.763 10 0 60380 61200.00000 0 21312778.658 13343688.194 -4292262.426 10 0 60380 62100.00000 0 21689265.858 13391550.692 -1089789.105 10 0 60380 63000.00000 0 21728592.535 13209366.482 2133847.947 10 0 60380 63900.00000 0 21403366.303 12846147.098 5316083.680 10 0 60380 64800.00000 0 20698508.052 12356426.089 8395220.321 10 0 60380 65700.00000 0 19612026.214 11797757.906 11311618.573 10 0 60380 66600.00000 0 18155258.138 11228107.137 14008844.156 10 0 60380 67500.00000 0 16352569.288 10703238.294 16434748.164 10 0 60380 68400.00000 0 14240523.476 10274215.663 18542461.452 10 0 60380 69300.00000 0 11866559.017 9985117.582 20291285.154 10 0 60380 70200.00000 0 9287225.762 9871060.094 21647461.713 10 0 60380 71100.00000 0 6566055.579 9956611.792 22584813.125 10 0 60380 72000.00000 0 3771153.508 10254665.270 23085235.581 10 0 60380 72900.00000 0 972607.816 10765811.812 23139042.165 10 0 60380 73800.00000 0 -1760175.734 11478245.227 22745147.861 10 0 60380 74700.00000 0 -4361107.095 12368199.238 21911093.575 10 0 60380 75600.00000 0 -6769905.692 13400900.958 20652908.567 10 0 60380 76500.00000 0 -8934353.310 14532001.990 18994813.144 10 0 60380 77400.00000 0 -10812214.190 15709428.909 16968766.200 10 0 60380 78300.00000 0 -12372743.685 16875577.490 14613864.768 10 0 60380 79200.00000 0 -13597723.311 17969760.462 11975605.456 10 0 60380 80100.00000 0 -14481979.117 18930807.519 9105020.296 10 0 60380 81000.00000 0 -15033361.439 19699709.324 6057702.129 10 0 60380 81900.00000 0 -15272186.297 20222194.657 2892737.064 10 0 60380 82800.00000 0 -15230161.197 20451131.827 -328436.131 10 0 60380 83700.00000 0 -14948839.857 20348652.139 -3543217.990 10 0 60380 84600.00000 0 -14477670.516 19887904.256 -6689068.461 10 0 60380 85500.00000 0 -13871720.076 19054363.372 -9704730.843 10 0 60381 0.00000 0 -13189170.515 17846637.786 -12531434.609 10 0 60381 900.00000 0 -12488693.738 16276735.736 -15114054.014 10 0 60381 1800.00000 0 -11826817.833 14369780.682 -17402194.851 10 0 60381 2700.00000 0 -11255396.251 12163182.899 -19351191.907 10 0 60381 3600.00000 0 -10819289.287 9705302.123 -20922992.655 10 0 60381 4500.00000 0 -10554357.041 7053655.773 -22086910.420 10 0 60381 5400.00000 0 -10485850.074 4272747.285 -22820231.284 10 0 60381 6300.00000 0 -10627266.869 1431605.313 -23108662.350 10 0 60381 7200.00000 0 -10979727.119 -1398863.178 -22946612.299 10 0 60381 8100.00000 0 -11531887.681 -4148595.033 -22337298.769 10 0 60381 9000.00000 0 -12260404.755 -6751054.264 -21292680.593 10 0 60381 9900.00000 0 -13130922.360 -9145764.432 -19833216.619 10 0 60381 10800.00000 0 -14099544.730 -11280584.433 -17987456.349 10 0 60381 11700.00000 0 -15114729.518 -13113633.170 -15791471.059 10 0 60381 12600.00000 0 -16119520.830 -14614783.598 -13288137.349 10 0 60381 13500.00000 0 -17054026.699 -15766665.154 -10526288.006 10 0 60381 14400.00000 0 -17858035.398 -16565134.514 -7559747.755 10 0 60381 15300.00000 0 -18473659.268 -17019197.246 -4446273.731 10 0 60381 16200.00000 0 -18847893.912 -17150386.234 -1246422.359 10 0 60381 17100.00000 0 -18934984.510 -16991625.632 1977634.439 10 0 60381 18000.00000 0 -18698499.573 -16585630.635 5163319.910 10 0 60381 18900.00000 0 -18113025.139 -15982912.675 8248866.041 10 0 60381 19800.00000 0 -17165408.790 -15239475.738 11174506.403 10 0 60381 20700.00000 0 -15855501.936 -14414301.982 13883625.360 10 0 60381 21600.00000 0 -14196370.004 -13566732.958 16323842.111 10 0 60381 22500.00000 0 -12213962.266 -12753856.500 18448009.649 10 0 60381 23400.00000 0 -9946255.381 -12028008.390 20215110.662 10 0 60381 24300.00000 0 -7441906.222 -11434492.622 21591034.655 10 0 60381 25200.00000 0 -4758469.350 -11009614.551 22549222.885 10 0 60381 26100.00000 0 -1960252.096 -10779108.023 23071170.172 10 0 60381 27000.00000 0 884105.387 -10757021.169 23146775.119 10 0 60381 27900.00000 0 3704226.806 -10945106.725 22774532.883 10 0 60381 28800.00000 0 6430667.716 -11332742.066 21961567.070 10 0 60381 29700.00000 0 8997546.547 -11897382.577 20723500.008 10 0 60381 30600.00000 0 11345031.718 -12605530.169 19084163.141 10 0 60381 31500.00000 0 13421583.433 -13414177.635 17075151.955 10 0 60381 32400.00000 0 15185858.346 -14272669.827 14735232.535 10 0 60381 33300.00000 0 16608198.708 -15124905.170 12109609.418 10 0 60381 34200.00000 0 17671644.119 -15911786.528 9249067.208 10 0 60381 35100.00000 0 18372423.466 -16573819.436 6209000.928 10 0 60381 36000.00000 0 18719905.852 -17053748.923 3048352.556 10 0 60381 36900.00000 0 18736011.771 -17299123.723 -171526.514 10 0 60381 37800.00000 0 18454108.456 -17264679.000 -3388065.452 10 0 60381 38700.00000 0 17917435.150 -16914435.631 -6538693.255 10 0 60381 39600.00000 0 17177124.252 -16223425.525 -9562063.042 10 0 60381 40500.00000 0 16289901.749 -15178967.833 -12399256.686 10 0 60381 41400.00000 0 15315564.352 -13781439.708 -14994945.184 10 0 60381 42300.00000 0 14314340.620 -12044506.623 -17298480.814 10 0 60381 43200.00000 0 13344248.623 -9994800.267 -19264898.516 10 0 60381 44100.00000 0 12458562.958 -7671055.564 -20855805.751 10 0 60381 45000.00000 0 11703499.434 -5122741.587 -22040142.394 10 0 60381 45900.00000 0 11116216.379 -2408242.745 -22794795.068 10 0 60381 46800.00000 0 10723217.911 407334.154 -23105053.369 10 0 60381 47700.00000 0 10539227.246 3254635.363 -22964898.758 10 0 60381 48600.00000 0 10566577.828 6062714.570 -22377120.465 10 0 60381 49500.00000 0 10795147.844 8761755.107 -21353256.279 10 0 60381 50400.00000 0 11202840.332 11285745.987 -19913359.741 10 0 60381 51300.00000 0 11756587.709 13574999.970 -18085598.815 10 0 60381 52200.00000 0 12413837.166 15578408.685 -15905694.539 10 0 60381 53100.00000 0 13124452.806 17255341.099 -13416211.419 10 0 60381 54000.00000 0 13832952.802 18577107.012 -10665714.341 10 0 60381 54900.00000 0 14480985.667 19527925.820 -7707809.447 10 0 60381 55800.00000 0 15009939.813 20105361.876 -4600088.722 10 0 60381 56700.00000 0 15363575.189 20320210.494 -1402999.893 10 0 60381 57600.00000 0 15490565.224 20195841.840 1821335.472 10 0 60381 58500.00000 0 15346841.540 19767032.766 5010331.897 10 0 60381 59400.00000 0 14897642.574 19078338.026 8102153.992 10 0 60381 60300.00000 0 14119180.235 18182071.289 11036910.853 10 0 60381 61200.00000 0 12999854.996 17135982.302 13757807.914 10 0 60381 62100.00000 0 11540969.055 16000728.642 16212234.634 10 0 60381 63000.00000 0 9756908.162 14837248.422 18352768.032 10 0 60381 63900.00000 0 7674784.813 13704143.787 20138073.978 10 0 60381 64800.00000 0 5333557.631 12655183.912 21533690.402 10 0 60381 65700.00000 0 2782663.039 11737030.774 22512678.920 10 0 60381 66600.00000 0 80215.145 10987281.349 23056133.773 10 0 60381 67500.00000 0 -2709152.966 10432906.624 23153539.558 10 0 60381 68400.00000 0 -5516718.929 10089151.423 22802971.708 10 0 60381 69300.00000 0 -8272273.213 9958940.145 22011136.230 10 0 60381 70200.00000 0 -10906788.138 10032812.897 20793247.779 10 0 60381 71100.00000 0 -13355045.384 10289394.874 19172747.746 10 0 60381 72000.00000 0 -15558114.854 10696380.014 17180866.606 10 0 60381 72900.00000 0 -17465583.511 11211988.787 14856037.500 10 0 60381 73800.00000 0 -19037442.430 11786840.280 12243170.603 10 0 60381 74700.00000 0 -20245553.850 12366161.248 9392800.579 10 0 60381 75600.00000 0 -21074636.836 12892240.336 6360121.996 10 0 60381 76500.00000 0 -21522729.755 13307024.854 3203929.997 10 0 60381 77400.00000 0 -21601109.261 13554750.774 -14514.118 10 0 60381 78300.00000 0 -21333668.153 13584494.508 -3232670.846 10 0 60381 79200.00000 0 -20755777.303 13352537.604 -6387940.900 10 0 60381 80100.00000 0 -19912678.757 12824442.760 -9418889.846 10 0 60381 81000.00000 0 -18857477.308 11976751.311 -12266454.260 10 0 60381 81900.00000 0 -17648815.201 10798228.034 -14875104.809 10 0 60381 82800.00000 0 -16348328.430 9290598.192 -17193942.245 10 0 60381 83700.00000 0 -15017992.692 7468743.229 -19177703.666 10 0 60381 84600.00000 0 -13717471.948 5360344.653 -20787658.210 10 0 60381 85500.00000 0 -12501582.527 3004989.191 -21992373.640 10 0 60382 0.00000 0 -11417980.861 452771.619 -22768338.016 10 0 60382 900.00000 0 -10505172.678 -2237548.506 -23100424.077 10 0 60382 1800.00000 0 -9790929.559 -5000756.031 -22982186.045 10 0 60382 2700.00000 0 -9291177.878 -7767667.552 -22415984.355 10 0 60382 3600.00000 0 -9009408.189 -10467789.424 -21412934.890 10 0 60382 4500.00000 0 -8936628.714 -13032036.431 -19992684.581 10 0 60382 5400.00000 0 -9051863.906 -15395397.041 -18183018.140 10 0 60382 6300.00000 0 -9323175.660 -17499433.859 -16019304.284 10 0 60382 7200.00000 0 -9709162.463 -19294514.915 -13543793.069 10 0 60382 8100.00000 0 -10160871.417 -20741683.094 -10804778.934 10 0 60382 9000.00000 0 -10624040.630 -21814086.513 -7855646.792 10 0 60382 9900.00000 0 -11041575.625 -22497911.388 -4753820.811 10 0 60382 10800.00000 0 -11356153.744 -22792780.178 -1559637.391 10 0 60382 11700.00000 0 -11512845.458 -22711600.475 1664834.814 10 0 60382 12600.00000 0 -11461641.224 -22279873.265 4857004.077 10 0 60382 13500.00000 0 -11159776.945 -21534491.904 7954970.018 10 0 60382 14400.00000 0 -10573760.119 -20522084.280 10898719.544 10 0 60382 15300.00000 0 -9681011.662 -19296969.400 13631281.319 10 0 60382 16200.00000 0 -8471054.948 -17918815.279 16099817.072 10 0 60382 17100.00000 0 -6946202.627 -16450096.810 18256629.649 10 0 60382 18000.00000 0 -5121712.837 -14953459.978 20060069.653 10 0 60382 18900.00000 0 -3025408.295 -13489101.977 21475324.700 10 0 60382 19800.00000 0 -696773.778 -12112275.527 22475077.688 10 0 60382 20700.00000 0 1814431.308 -10871020.124 23040022.881 10 0 60382 21600.00000 0 4449988.931 -9804213.244 23159231.128 10 0 60382 22500.00000 0 7145393.467 -8940021.227 22830358.082 10 0 60382 23400.00000 0 9832289.767 -8294813.172 22059691.789 10 0 60382 24300.00000 0 12441079.481 -7872582.257 20862038.610 10 0 60382 25200.00000 0 14903589.800 -7664898.233 19260448.999 10 0 60382 26100.00000 0 17155695.906 -7651393.216 17285787.290 10 0 60382 27000.00000 0 19139789.860 -7800760.993 14976152.294 10 0 60382 27900.00000 0 20806994.380 -8072228.887 12376158.161 10 0 60382 28800.00000 0 22119029.826 -8417441.441 9536087.667 10 0 60382 29700.00000 0 23049656.411 -8782677.765 6510932.675 10 0 60382 30600.00000 0 23585630.807 -9111309.931 3359338.963 10 0 60382 31500.00000 0 23727136.052 -9346399.135 142474.987 10 0 60382 32400.00000 0 23487665.563 -9433319.822 -3077153.999 10 0 60382 33300.00000 0 22893364.842 -9322300.113 -6236923.398 10 0 60382 34200.00000 0 21981857.461 -8970769.770 -9275314.145 10 0 60382 35100.00000 0 20800603.905 -8345414.506 -12133120.314 10 0 60382 36000.00000 0 19404861.958 -7423847.528 -14754614.838 10 0 60382 36900.00000 0 17855334.530 -6195825.178 -17088649.282 10 0 60382 37800.00000 0 16215604.442 -4663952.834 -19089664.969 10 0 60382 38700.00000 0 14549464.887 -2843848.875 -20718594.495 10 0 60382 39600.00000 0 12918258.938 -763757.714 -21943634.978 10 0 60382 40500.00000 0 11378341.040 1536373.550 -22740877.134 10 0 60382 41400.00000 0 9978768.137 4006317.379 -23094777.333 10 0 60382 42300.00000 0 8759318.205 6587428.043 -22998463.096 10 0 60382 43200.00000 0 7748919.752 9214866.239 -22453866.001 10 0 60382 44100.00000 0 6964558.133 11820092.985 -21471679.550 10 0 60382 45000.00000 0 6410704.043 14333528.222 -20071143.148 10 0 60382 45900.00000 0 6079287.099 16687262.634 -18279656.924 10 0 60382 46800.00000 0 5950214.073 18817709.008 -16132235.548 10 0 60382 47700.00000 0 5992408.123 20668082.115 -13670812.515 10 0 60382 48600.00000 0 6165323.120 22190603.539 -10943409.367 10 0 60382 49500.00000 0 6420867.113 23348339.738 -8003187.039 10 0 60382 50400.00000 0 6705651.666 24116597.301 -4907398.895 10 0 60382 51300.00000 0 6963470.275 24483818.362 -1716266.855 10 0 60382 52200.00000 0 7137899.672 24451940.365 1508196.554 10 0 60382 53100.00000 0 7174913.070 24036207.105 4703396.536 10 0 60382 54000.00000 0 7025394.356 23264441.060 7807370.764 10 0 60382 54900.00000 0 6647446.984 22175809.529 10759986.783 10 0 60382 55800.00000 0 6008400.363 20819138.053 13504099.048 10 0 60382 56700.00000 0 5086429.744 19250843.059 15986643.803 10 0 60382 57600.00000 0 3871722.010 17532571.028 18159651.659 10 0 60382 58500.00000 0 2367138.916 15728643.055 19981159.563 10 0 60382 59400.00000 0 588350.215 13903411.030 21416006.113 10 0 60382 60300.00000 0 -1436569.066 12118634.770 22436496.469 10 0 60382 61200.00000 0 -3668061.038 10430987.947 23022925.558 10 0 60382 62100.00000 0 -6056489.773 8889795.042 23163950.760 10 0 60382 63000.00000 0 -8543971.778 7535091.753 22856807.829 10 0 60382 63900.00000 0 -11066558.020 6396088.012 22107366.305 10 0 60382 64800.00000 0 -13556679.187 5490096.301 20930023.251 10 0 60382 65700.00000 0 -15945754.946 4821969.005 19347436.718 10 0 60382 66600.00000 0 -18166860.960 4384067.933 17390102.979 10 0 60382 67500.00000 0 -20157344.633 4156767.309 15095784.193 10 0 60382 68400.00000 0 -21861282.049 4109469.706 12508795.826 10 0 60382 69300.00000 0 -23231674.425 4202093.072 9679165.862 10 0 60382 70200.00000 0 -24232292.496 4386967.259 6661680.411 10 0 60382 71100.00000 0 -24839091.219 4611060.979 3514832.793 10 0 60382 72000.00000 0 -25041134.524 4818445.817 299695.540 10 0 60382 72900.00000 0 -24840989.989 4952893.316 -2921263.325 10 0 60382 73800.00000 0 -24254575.354 4960494.892 -6085396.777 10 0 60382 74700.00000 0 -23310461.881 4792192.741 -9131103.862 10 0 60382 75600.00000 0 -22048662.597 4406113.046 -11999038.746 10 0 60382 76500.00000 0 -20518955.545 3769600.784 -14633279.012 10 0 60382 77400.00000 0 -18778812.148 2860867.731 -16982429.186 10 0 60382 78300.00000 0 -16891017.860 1670181.589 -19000636.638 10 0 60382 79200.00000 0 -14921085.562 200543.605 -20648498.853 10 0 60382 80100.00000 0 -12934571.126 -1532176.113 -21893843.281 10 0 60382 81000.00000 0 -10994404.785 -3499653.165 -22712363.732 10 0 60382 81900.00000 0 -9158351.170 -5662057.389 -23088100.315 10 0 60382 82800.00000 0 -7476705.302 -7969496.510 -23013753.227 10 0 60382 83700.00000 0 -5990321.578 -10363894.929 -22490824.176 10 0 60382 84600.00000 0 -4729058.362 -12781229.084 -21529582.819 10 0 60382 85500.00000 0 -3710702.947 -15154025.549 -20148859.180 99